Hourly Data Report for October 14, 2013

All times are specified in Local Standard Time (LST). Add 1 hour to adjust for Daylight Saving Time where and when it is observed.

ARVIAT A
NUNAVUT

61°05'38.000" N
94°04'18.000" W
10.40 m
2300427
71174
YEK

Download Data

Hourly Data (October 2013)
Hourly Data Report for October 14, 2013
Temp Definition
°C
Dew Point Temp Definition
°C
Rel Hum Definition
%
Wind Dir Definition
10's deg

Wind Spd Definition
km/h
Visibility Definition
km
Stn Press Definition
kPa
Hmdx Definition


Wind Chill Definition


Weather Definition


TIME
00:00 Legend Double Dagger -0.2 -2.0 88 32 59 16.1 100.67   -9 LegendNANA
01:00 Legend Double Dagger -0.2 -2.1 87 32 59 16.1 100.72   -9 LegendNANA
02:00 Legend Double Dagger 0.0 -1.9 87 32 52 16.1 100.77   -8 LegendNANA
03:00 Legend Double Dagger 0.0 -1.9 87 32 48 16.1 100.81   -8 LegendNANA
04:00 Legend Double Dagger -0.2 -2.0 88 31 54 16.1 100.83   -9 LegendNANA
05:00 Legend Double Dagger -0.3 -2.0 88 31 52 16.1 100.88   -9 LegendNANA
06:00 Legend Double Dagger -0.3 -2.4 86 32 58 16.1 100.93   -9 LegendNANA
07:00 Legend Double Dagger -0.4 -2.0 89 32 46 16.1 100.96   -8 LegendNANA
08:00 Legend Double Dagger -0.5 -2.4 87 32 48 16.1 100.98   -9 LegendNANA
09:00 Legend Double Dagger -0.7 -2.8 86 32 54 16.1 100.97   -9 LegendNANA
10:00 Legend Double Dagger -0.2 -2.3 86 31 46 16.1 101.00   -8 LegendNANA
11:00 Legend Double Dagger 0.1 -2.1 85 31 48 16.1 101.02     LegendNANA
12:00 Legend Double Dagger 0.4 -2.3 82 31 54 16.1 101.02     LegendNANA
13:00 Legend Double Dagger 0.5 -2.1 83 31 50 16.1 101.08     LegendNANA
14:00 Legend Double Dagger 0.4 -2.2 83 31 48 16.1 101.15     LegendNANA
15:00 Legend Double Dagger 0.5 -2.2 82 31 42 16.1 101.21     LegendNANA
16:00 Legend Double Dagger 0.6 -2.1 82 31 37 16.1 101.25     LegendNANA
17:00 Legend Double Dagger 0.1 -2.4 83 31 35 16.1 101.31     LegendNANA
18:00 Legend Double Dagger 0.2 -2.1 84 31 32 16.1 101.32     LegendNANA
19:00 Legend Double Dagger -0.3 -2.4 86 30 32 16.1 101.33   -7 LegendNANA
20:00 Legend Double Dagger -0.1 -1.5 90 31 24 16.1 101.33   -6 LegendNANA
21:00 Legend Double Dagger -0.4 -2.2 88 32 37 16.1 101.31   -8 LegendNANA
22:00 Legend Double Dagger -1.1 -3.2 86 32 33 16.1 101.29   -8 LegendNANA
23:00 Legend Double Dagger -1.4 -3.6 85 32 33 16.1 101.27   -9 LegendNANA

Notes on Data Quality.

Legend

  • E = Estimated
  • M = Missing
  • NA = Not Available
  • ‡ = Partner data that is not subject to review by the National Climate Archives
Date modified: